Location: Newark
(39.1833°N, 3.3000°W)
Time: 15:46:24
(UTC+00:00)

Tiangong 2 - Pass Details

Date: 23 March 2019
Orbit: 378 x 390 km, 42.8° (Epoch: 26 April)

Event Time Altitude Azimuth Distance (km) Brightness Sun altitude
Exits shadow 05:19:05 18° 253° (WSW) 1,007 2.5 -11.2°
Maximum altitude 05:20:31 26° 212° (SSW) 798 2.3 -10.9°
Drops below altitude 10° 05:23:13 10° 153° (SSE) 1,399 4.1 -10.4°
Sets 05:25:29 0° 140° (SE) 2,252 5.4 -9.9°
